Weather History for KMUO - March, 2013

Change the Weather History Date:

Tuesday, March 5, 2013

  Actual Average Record
Temperature  
Mean Temperature 41 °F 40 °F  
Max Temperature 51 °F 51 °F 69 °F (1925)
Min Temperature 30 °F 28 °F 5 °F (1955)
Degree Days  
Heating Degree Days 24 25  
Month to date heating degree days 123 129  
Cooling Degree Days 0 0  
Month to date cooling degree days 0 0  
Moisture  
Dew Point 17 °F    
Average Humidity 39    
Maximum Humidity 55    
Minimum Humidity 27    
Precipitation  
Precipitation 0.00 in 0.04 in 0.36 in (1912)
Month to date precipitation 0.05 0.18  
Sea Level Pressure  
Sea Level Pressure 30.01 in    
Wind  
Wind Speed 19 mph (SE)    
Max Wind Speed 33 mph    
Max Gust Speed 40 mph    
Visibility 10 miles    
Events      
T = Trace of Precipitation, MM = Missing Value Source: NWS Daily Summary

Daily Weather History Graph

Daily Weather History Graph

Search for Another Location

Airport or City:

Trip Planner

Search our weather history database for the weather conditions in past years. The results will help you decide how hot, cold, wet, or windy it might be!

Date:

Astronomy

Mar. 05, 2013 Rise Set
Actual Time 7:12 AM MST 6:38 PM MST
Civil Twilight 6:43 AM MST 7:06 PM MST
Nautical Twilight 6:11 AM MST 7:39 PM MST
Astronomical Twilight 5:38 AM MST 8:12 PM MST
Moon 2:35 AM MST (3/5) 12:14 PM MST (3/5)
Length of Visible Light 12h 22m
Length of Day
11h 25m
Last Quarter, 40% of the Moon is Illuminated
Mar 5
Last Quarter
Mar 11
New
Mar 19
First Quarter
Mar 27
Full
Apr 2
Last Quarter

Hourly Weather History & Observations

Time (MST) Temp. Windchill Dew Point Humidity Pressure Visibility Wind Dir Wind Speed Gust Speed Precip Events Conditions
12:58 AM 30.0 °F 18.7 °F 15.4 °F 55% 30.19 in 10.0 mi SE 16.1 mph - N/A   Clear
1:58 AM 30.6 °F 19.4 °F 15.4 °F 54% 30.19 in 10.0 mi ESE 16.1 mph - N/A   Clear
2:58 AM 30.9 °F 19.4 °F 15.4 °F 53% 30.17 in 10.0 mi SE 17.3 mph - N/A   Clear
3:58 AM 31.3 °F 20.3 °F 15.1 °F 51% 30.16 in 10.0 mi ESE 16.1 mph - N/A   Clear
4:58 AM 32.0 °F 20.8 °F 13.6 °F 47% 30.15 in 10.0 mi SE 17.3 mph - N/A   Clear
5:58 AM 31.6 °F 20.7 °F 13.6 °F 47% 30.14 in 10.0 mi SE 16.1 mph - N/A   Clear
6:58 AM 33.1 °F 23.0 °F 11.8 °F 41% 30.15 in 10.0 mi SE 15.0 mph - N/A   Clear
7:58 AM 34.5 °F 24.1 °F 12.0 °F 39% 30.14 in 10.0 mi SE 17.3 mph - N/A   Clear
8:58 AM 37.2 °F 24.9 °F 12.0 °F 36% 30.13 in 10.0 mi SE 28.8 mph 34.5 mph N/A   Clear
9:58 AM 39.9 °F 27.8 °F 12.4 °F 32% 30.12 in 10.0 mi ESE 33.4 mph 40.3 mph N/A   Scattered Clouds
10:58 AM 43.2 °F 33.8 °F 13.1 °F 30% 30.09 in 10.0 mi ESE 24.2 mph 38.0 mph N/A   Partly Cloudy
11:58 AM 45.7 °F 36.2 °F 14.5 °F 29% 30.05 in 10.0 mi ESE 29.9 mph 38.0 mph N/A   Scattered Clouds
12:58 PM 47.5 °F - 15.1 °F 27% 30.03 in 10.0 mi ESE 26.5 mph 33.4 mph N/A   Scattered Clouds
1:58 PM 48.0 °F - 16.0 °F 28% 29.98 in 10.0 mi ESE 26.5 mph 34.5 mph N/A   Scattered Clouds
2:34 PM 48.2 °F - 17.6 °F 30% 29.93 in 10.0 mi ESE 26.5 mph 33.4 mph N/A   Mostly Cloudy
2:58 PM 49.5 °F - 17.4 °F 28% 29.94 in 10.0 mi ESE 26.5 mph 34.5 mph N/A   Mostly Cloudy
3:58 PM 49.6 °F - 18.7 °F 29% 29.92 in 10.0 mi ESE 24.2 mph 32.2 mph N/A   Mostly Cloudy
4:58 PM 49.3 °F - 19.2 °F 30% 29.91 in 10.0 mi ESE 15.0 mph 23.0 mph N/A   Overcast
5:58 PM 47.8 °F - 21.0 °F 35% 29.90 in 10.0 mi ESE 12.7 mph - N/A   Overcast
6:58 PM 45.3 °F 40.6 °F 21.4 °F 39% 29.90 in 10.0 mi ESE 9.2 mph - N/A   Overcast
7:58 PM 43.7 °F 37.7 °F 21.7 °F 42% 29.88 in 10.0 mi SE 11.5 mph - N/A   Mostly Cloudy
8:58 PM 43.3 °F 36.5 °F 21.6 °F 42% 29.84 in 10.0 mi SE 13.8 mph - N/A   Mostly Cloudy
9:58 PM 42.4 °F 35.0 °F 21.0 °F 43% 29.83 in 10.0 mi SE 15.0 mph - N/A   Mostly Cloudy
10:58 PM 42.6 °F 35.6 °F 21.2 °F 43% 29.79 in 10.0 mi SE 13.8 mph - N/A   Mostly Cloudy
11:58 PM 43.5 °F 34.3 °F 20.8 °F 41% 29.78 in 10.0 mi SE 24.2 mph - N/A   Mostly Cloudy